Location: Treviso
(45.6669°N, 12.2430°E)
Time: 02:20:24
(UTC+02:00)

ISS - Pass Details

Date: 18 May 2018
Orbit: 402 x 407 km, 51.6° (Epoch: 26 May)

Event Time Altitude Azimuth Distance (km) Brightness Sun altitude
Exits shadow 01:48:18 32° 346° (NNW) 718 -2.1 -24.2°
Maximum altitude 01:48:22 32° 348° (NNW) 718 -2.1 -24.2°
Drops below altitude 10° 01:51:21 10° 54° (NE) 1,459 -0.4 -24.1°
Sets 01:53:34 0° 65° (ENE) 2,319 0.5 -24.0°
